Regional Weather Roundup
Issued by NWS Wakefield, VA

Home | Current Version | Previous Version | Graphics & Text | Print | Product List | Glossary On
Versions: 1 2 3 4 5 6 7 8 9 10 11 12 13 14 15 16 17 18 19 20 21 22 23 24 25 26 27 28 29 30 31 32 33 34 35 36 37 38 39 40 41 42 43 44 45 46 47 48 49 50
000
ASUS41 KAKQ 192310
RWRAKQ

REGIONAL WEATHER ROUNDUP
NATIONAL WEATHER SERVICE WAKEFIELD VA
600 PM EST FRI DEC 19 2014

Note: "fair" indicates few or no clouds below 12,000 feet with no
significant weather and/or obstructions to visibility. * = Denotes
station may not report precipitation (e.g., rain,snow,etc.),
thunder or fog.

VAZ042-051-052>054-056-200000-
NORTHERN VIRGINIA

CITY           SKY/WX    TMP DP  RH WIND       PRES   REMARKS
WASH NATIONAL  PTCLDY    40  22  48 NW12      30.20R
DULLES         PTCLDY    33  22  63 W10       30.19R WCI  25
FORT BELVOIR   CLEAR     36  22  57 W5        30.20R
QUANTICO       PTCLDY    37  22  54 N6        30.22R
FREDERICKSBRG* CLEAR     38  26  61 N5        30.19S
STAFFORD*      CLEAR     35  22  59 N6        30.24R
WARRENTON      CLEAR     36  28  75 N8        30.18S
CULPEPER*      CLEAR     36  25  64 N9        30.19S
MANASSAS*      CLEAR     36  25  64 NW10      30.20R
LEESBURG*      PTCLDY    34  27  75 NW5       30.20R
WINCHESTER     CLEAR     34  19  55 NW16G24   30.17F WCI  23
FRONT ROYAL*   CLEAR     32  23  69 CALM      30.19R
LURAY*         CLEAR     34  27  75 CALM      30.19R
$$

VAZ048-049-060>072-079>083-200000-
CENTRAL AND SOUTH CENTRAL VIRGINIA

CITY           SKY/WX    TMP DP  RH WIND       PRES   REMARKS
RICHMOND       MOCLDY    39  24  55 NE3       30.18R
CHESTERFIELD*  CLEAR     36  18  48 CALM      30.18R
PETERSBURG*    CLEAR     32  28  86 CALM      30.18R
HANOVER        CLEAR     37  24  59 VRB3      30.20R
TAPPAHANNOCK*  CLEAR     36  22  55 CALM      30.20R
QUINTON*       CLEAR     35  26  68 CALM      30.18R
CHARLOTTSVILLE CLEAR     36  22  56 N5        30.18R
GORDONSVILLE*  CLEAR     35  23  63 NE3       30.18R
ORANGE*        CLEAR     34  27  75 N3        30.20R
LOUISA*        CLEAR     37  27  65 CALM      30.17R
BUMPASS*       CLEAR     36  24  62 CALM      30.18R
FARMVILLE*     CLEAR     39  26  59 CALM      30.16R
CREWE*         MOCLDY    35  26  71 CALM      30.16R
FORT PICKETT*  MOCLDY    37  26  65 NE3       30.16R
CHASE CITY*    MOCLDY    38  32  79 CALM      30.16R
CLARKSVILLE*   MOCLDY    37  30  75 CALM      30.16R
SOUTH HILL*    MOCLDY    36  31  81 CALM      30.22R
LAWRENCEVILLE* MOCLDY    38  29  71 CALM      30.16S
EMPORIA*       PTCLDY    32  30  93 CALM      30.19R
$$

VAZ088>098-200000-
SOUTHEAST VIRGINIA

CITY           SKY/WX    TMP DP  RH WIND       PRES   REMARKS
NORFOLK        CLEAR     39  29  67 NE8       30.17R
VIRGINIA BEACH MOCLDY    38  29  70 N6        30.17R
NORFOLK NAVAL  MOCLDY    42  30  62 NE5       30.19R
WEST POINT*    CLEAR     39  24  54 N3        30.21R
SALUDA*        FAIR      37  26  65 N7        30.19R
NEWPORT NEWS   LGT RAIN  37  27  67 CALM      30.18R
LANGLEY AFB    CLEAR     38  26  62 N6        30.19R
FORT EUSTIS    CLEAR     37  26  65 CALM      30.17R
WILLIAMSBURG*  CLEAR     39  30  70 CALM      30.19R
HR EXEC AP*    CLEAR     30  25  80 CALM      30.20R
FRANKLIN*      CLEAR     36  28  75 CALM      30.18R
WAKEFIELD      CLEAR     33  27  78 CALM      30.18R
$$

VAZ020-022-025-037-045-200000-
WEST CENTRAL AND SOUTHWEST VIRGINIA

CITY           SKY/WX    TMP DP  RH WIND       PRES   REMARKS
STAUNTON*      CLEAR     32  22  67 NE3       30.19R
WAYNESBORO*    CLEAR     31  22  70 CALM      30.16R
HOT SPRINGS VA CLEAR     26  21  79 W13       30.04R WCI  15
LYNCHBURG      CLEAR     36  25  64 CALM      30.16R
DANVILLE       PTCLDY    39  27  62 CALM      30.16R
SOUTH BOSTON*  MOCLDY    40  28  61 CALM      30.16R
MARTINSVILLE   MOCLDY    38  28  67 CALM      30.18R
ROANOKE        MOCLDY    39  23  52 NW9       30.18R
BLACKSBURG     MOCLDY    34  23  64 NW6       30.17R
DUBLIN*        MOCLDY    36  27  69 W3        30.16R
MARION*        CLOUDY    37  23  56 W8        30.16R
HILLSVILLE*    MOCLDY    37  23  58 NW6       30.13R
RICHLANDS*     CLOUDY    34  23  63 NW3       30.16R
WISE*          CLOUDY    32  25  74 CALM      30.17R
ABINGDON*      CLOUDY    38  26  61 CALM      30.16S
$$

MDZ021>025-VAZ099-100-200000-
SOUTHERN MARYLAND AND THE DELMARVA PENINSULA

CITY           SKY/WX    TMP DP  RH WIND       PRES   REMARKS
PATUXENT RIVER PTCLDY    35  22  58 W5        30.18R
BAY BRIDGE APT   N/A     37  25  60 NW8       30.17S
LEONARDTOWN    CLEAR     34  23  64 CALM      30.20R
DOVER          CLEAR     36  24  62 W2        30.13R
GEORGETOWN     CLEAR     36  24  62 W5        30.17R
EASTON         CLEAR     37  27  65 CALM      30.21R
CAMBRIDGE      CLEAR     36  27  69 W3        30.18R
SALISBURY      PTCLDY    38  24  57 W6        30.17S
OCEAN CITY     CLEAR     36  24  62 NW6       30.17R
WALLOPS ISLAND CLOUDY    36  25  64 NW7       30.19R
ACCOMACK*      CLEAR     36  27  69 NW5       30.18R
$$

NCZ012>017-030>032-200000-
NORTH CENTRAL AND EASTERN NORTH CAROLINA

CITY           SKY/WX    TMP DP  RH WIND       PRES   REMARKS
ROANOKE RAPIDS MOCLDY    36  32  87 CALM      30.17S
RALEIGH        CLOUDY    45  28  51 CALM      30.17R
ELIZABETH CITY PTCLDY    42  31  64 E3        30.18R
AHOSKIE*       PTCLDY    36  30  80 CALM      30.19R
EDENTON*         N/A     38  32  80 CALM      30.18R
CURRITUCK*     PTCLDY    39  31  72 NE3       30.19R
KILL DEVIL HLS PTCLDY    40  32  72 N3        30.17R
MANTEO         PTCLDY    39  31  73 N5        30.18R
CAPE HATTERAS  PTCLDY    41  34  76 NE6       30.16R
TARBORO*       PTCLDY    37  34  87 CALM      30.19R
GOLDSBORO      PTCLDY    44  38  77 CALM      30.15R
WASHINGTON     PTCLDY    41  32  70 CALM      30.18R
GREENVILLE     PTCLDY    43  32  65 CALM      30.19R
NEW BERN       PTCLDY    45  32  60 CALM      30.18R
WILMINGTON     PTCLDY    49  35  58 CALM      30.15R
$$

VAZ048-200000-
ELSEWHERE

CITY           SKY/WX    TMP DP  RH WIND       PRES   REMARKS
HARRISBURG PA  PTCLDY    34  20  56 NW7       30.17R
BALTIMORE      PTCLDY    36  23  59 NW7       30.16R
ANNAPOLIS      CLEAR     38  23  55 W6        30.17R
ANDREWS AFB    CLEAR     36  22  57 NW12      30.17R
PHILADELPHIA   CLEAR     39  21  48 NW9       30.16R
HENDERSON NC   CLOUDY    39  30  68 CALM      30.16R
GREENSBORO     MOCLDY    46  23  40 CALM      30.14R
ROCKY MOUNT    PTCLDY    40  33  76 CALM      30.17R
$$

VAZ100-200000-
MARINE

STATION/POSITION TIME  TEMP    WIND        PRES    WAVE   SWELL
                       AIR SEA DIR/SP/G            HT/PER HT/PER
                 (UTC) (F)     (DEG/KT/KT) (MB)    (FT/S) (FT/S)
CAPE MAY NJ      2300   39 42  310/ 13/ 17 1020.2R
LEWES DE         2300   37 42  270/  7/ 10 1020.9R
15NM E FENWICK I 2300   40 47              1020.5R   3/ 5
OCEAN-CITY-INLET 2300   38 45  310/  6/  9 1021.1R
WACHAPREAGUE VA  2300   36 44  340/  2/  3 1022.0R
THOMAS POINT MD  2300   39 41  300/  7/  8 1022.9R
GOOSES REEF MD   2300   39     VRB 10/ 12  1021.0S
COVE POINT MD    2300   37     320/  5/  7 1021.9R
SOLOMONS ISLAND  2300      43                N/A
BISHOPS HEAD MD  2300   37 38  330/  6/  7 1021.3F
POTOMAC MD       2300   40     340/ 12/ 16 1021.4R
CAMBRIDGE MD     2300   38 40  270/  5/  6 1021.6R
LEWISETTA VA     2300   38 42  320/  8/ 10 1022.0S
RAPPAHANNOCK LGT 2300          330/ 17/ 17 1022.4S
STINGRAY PT      2300   39     360/ 12/ 16 1022.6R
YORK RVR RNG VA  2300   41     360/ 12/ 13 1021.4R
YORKTOWN VA      2300   41 45   40/  9/ 10 1021.7R
JAMESTOWN VA     2300   40      50/  2/  4   N/A
DOMINION TERM VA 2300   44      60/  1/  4 1021.8S
KIPTOPEKE VA     2300      50   60/  4/  4   N/A
CHES BAY BRIDGE  2300   40 46   30/  9/ 11 1021.4F
CAPE HENRY VA    2300   40      10/ 10/ 12 1020.6S
CHESAPEAKE LGHT  2200   40     350/ 11/ 12 1022.0R
WILLOUBY STN VA  2300   41      60/  6/  7 1022.2F
S CRANEY ISL VA  2300           60/  8/  9 1021.7S
CAPE HENRY BUOY  2300      48                N/A     3/ 5
1ST LANDING BUOY 2300   40      20/ 10/ 12 1021.7R
CAPE CHARLES BUO 2300      48                N/A     2/ 4   2/13
64NM E OF VA BCH 2300   42 54  340/ 17/ 21 1020.6R   4/ 6
DUCK PIER NC     2300   42 47  360/  8/ 12 1020.9R
44100 DUCK FRF   2300      51                N/A     3/ 6
44056 DUCK FRF   2300      47                N/A     3/ 6
OREGON INLET NC  2300   40 50  340/  4/  6 1021.6R
HATTERAS NC      2300   44 53   50/  6/  8 1021.5R
DIAMOND SHLS NC  2300   46                 1021.3R   3/ 8
CAPE LOOKOUT NC  2200   47      20/  8/ 10 1020.5R
$$


USA.gov is the U.S. government's official web portal to all federal, state and local government web resources and services.